{"data":{"norad_id":63094,"intl_designator":"2025-037T","name":"STARLINK-32927","alt_names":[],"object_type":"PAYLOAD","status":"ACTIVE","operator":null,"country":"US","launch_date":"2025-02-23","launch_site_code":"AFWTR","launch_vehicle":null,"mission":null,"orbit_class":"UNKNOWN","rcs_meters":null,"size_class":null,"mass_kg":null,"dimensions":null,"purposes":["comms"],"wikipedia_slug":null,"has_3d_model":false,"image_url":null,"decayed_at":null,"tle_current":{"epoch":"2026-09-21T06:40:25.311072Z","epoch_age_seconds":95110,"freshness":"FRESH","line1":"1 63094U 25037T   26264.27807073  .00013111  00000+0  45953-3 0  9998","line2":"2 63094  70.0047 218.7480 0000934 303.0735  57.0350 15.29597342 87911","mean_motion":15.29597342,"eccentricity":9.34e-5,"inclination_deg":70.0047,"raan_deg":218.748,"arg_perigee_deg":303.0735,"mean_anomaly_deg":57.035,"bstar":0.00045953,"rev_number":8791,"period_min":94.142423006381,"perigee_km":476.37481715554,"apogee_km":477.65535956565,"semimajor_km":6855.1520883606,"source":"CELESTRAK","updated_at":"2026-09-22T09:00:49.761086Z"}}}